Temp
26 25 25 24 23 23 22 22 22 21 21 21 21 20 21 21 21 20 20 20 20 20 20 20 20 20 20 20 19 18 19 19 18 18 18 18 18 17 17 16 15 15 15
25 25 25 25 24 23 23 23 22 22 21 21 21 21 21 21 21 21 21 20 20 20 20 20 20 20 20 20 19 18 18 18 18 18 17 17 17 17 16 15 15 14 14
25 25 25 24 24 24 23 23 22 22 22 22 21 22 21 21 21 21 20 20 20 20 20 20 20 20 20 20 19 19 19 18 18 18 17 18 17 17 16 15 14 15 14
25 25 24 24 24 24 23 23 22 22 22 21 21 22 21 21 22 21 21 20 19 19 20 20 20 20 20 19 19 18 18 17 18 17 18 18 17 17 15 15 15 15 13
23 23 23 23 23 23 24 24 23 23 22 22 21 21 21 20 20 21 21 21 20 20 20 20 20 20 20 20 19 19 19 18 18 17 16 17 17 16 16 15 14 14 14
21 21 22 22 22 22 22 22 22 23 23 22 22 21 21 21 21 20 19 19 20 20 20 20 20 20 20 20 20 19 18 18 17 17 16 16 17 16 16 16 15 15 14
20 20 20 20 20 21 21 21 22 20 22 23 23 23 22 22 22 21 20 20 20 20 21 20 20 20 20 20 19 19 18 17 16 16 16 17 16 16 16 15 16 15 15
20 20 20 21 20 20 20 21 20 19 21 22 22 23 23 23 24 21 20 20 20 20 20 21 20 20 20 20 19 18 18 17 16 16 16 16 16 16 16 16 16 15 15
21 20 20 19 20 20 20 19 20 20 21 21 22 22 23 22 21 20 21 20 20 20 20 20 20 20 20 20 19 17 17 16 15 15 14 15 16 16 16 16 15 14 14
20 20 20 20 20 19 19 20 20 20 20 20 20 21 20 20 19 19 21 21 20 20 20 19 19 19 20 17 16 16 16 16 16 15 14 15 16 16 16 15 15 14 14
20 19 19 20 20 19 18 18 18 19 20 20 20 20 20 20 20 20 20 20 19 19 18 18 18 18 17 16 15 15 16 15 15 14 15 15 15 15 15 15 15 13 13
20 20 20 20 19 19 20 19 19 19 19 19 19 19 19 19 19 19 18 19 19 18 16 16 16 16 16 16 15 15 16 15 14 14 14 15 15 15 15 15 14 14 14
20 20 20 19 19 19 19 19 18 18 18 18 18 18 18 18 18 19 18 18 18 17 15 15 15 16 16 15 15 15 15 14 14 14 14 15 15 14 14 14 14 14 14
20 20 20 19 19 19 19 19 18 18 18 17 17 17 16 15 16 17 18 18 18 17 16 14 15 15 15 15 15 14 14 14 14 14 14 15 14 14 14 14 14 14 13
20 20 20 19 19 19 19 18 18 18 18 17 17 17 16 15 15 16 16 16 16 15 15 15 15 15 15 15 14 14 14 14 13 13 14 14 13 13 13 13 13 13 13
19 19 19 19 19 19 18 18 18 17 17 17 17 17 17 16 15 15 16 16 16 16 15 15 15 15 15 14 14 14 14 13 13 14 13 13 13 13 13 12 12 12 12
19 19 19 19 19 18 18 18 17 17 17 17 17 17 17 17 17 16 16 16 16 16 16 15 15 15 14 14 14 14 14 13 13 13 13 12 12 12 13 12 11 12 11
19 19 19 18 18 18 18 17 18 18 18 17 17 17 17 17 16 16 15 15 16 16 15 14 14 14 14 14 14 14 14 14 13 12 12 12 12 12 12 11 12 12 12
19 19 19 18 18 18 18 18 17 18 17 17 17 16 17 17 17 17 17 17 17 16 14 14 14 14 14 14 14 14 14 13 13 12 12 11 11 11 11 11 11 12 12
19 19 18 18 18 18 18 17 17 17 17 17 17 17 17 18 18 17 16 16 16 15 14 13 14 14 14 13 14 13 14 13 12 12 11 11 11 11 11 11 12 12 11
19 19 18 18 18 18 18 17 17 17 17 17 17 17 17 18 18 17 16 16 16 15 15 14 13 14 14 14 13 13 13 13 12 12 11 11 11 11 11 11 11 11 11
18 18 18 18 18 18 18 18 17 17 17 17 17 17 17 17 17 17 16 16 16 16 15 15 14 14 13 14 13 13 13 13 13 12 11 10 11 11 11 11 11 11 11
18 18 18 18 18 18 18 18 18 18 17 17 17 17 17 17 17 17 16 16 16 15 15 15 14 14 14 14 13 13 13 13 12 12 12 11 11 11 11 11 11 11 11
18 18 18 18 18 18 18 18 18 18 18 18 18 17 17 17 17 17 16 16 16 15 15 15 15 14 14 14 13 13 12 12 12 11 11 11 10 10 10 10 11 11 10
18 17 17 17 17 18 18 18 18 18 18 18 18 18 18 17 17 17 16 16 16 15 15 15 14 14 13 13 13 13 13 12 11 11 10 10 10 11 10 11 11 10 10
17 17 17 17 17 18 17 17 17 17 17 17 18 18 18 17 17 17 16 16 15 15 15 14 14 13 13 13 13 12 12 11 11 10 10 11 11 11 11 11 11 10 10
Height
1555 1558 1560 1563 1565 1568 1570 1572 1574 1577 1579 1581 1581 1582 1584 1585 1585 1585 1586 1587 1587 1586 1586 1586 1587 1586 1585 1586 1584 1583 1584 1583 1582 1578 1579 1579 1579 1580 1583 1586 1589 1591 1592
1550 1554 1556 1559 1561 1563 1565 1568 1570 1572 1575 1576 1577 1579 1581 1581 1581 1581 1583 1583 1583 1583 1583 1583 1583 1583 1583 1582 1582 1581 1581 1580 1580 1578 1577 1576 1576 1578 1579 1583 1587 1589 1590
1545 1549 1551 1553 1556 1558 1561 1563 1565 1568 1570 1571 1572 1573 1575 1576 1576 1577 1579 1580 1581 1580 1580 1579 1578 1577 1577 1578 1577 1577 1576 1576 1574 1573 1573 1573 1573 1574 1577 1579 1583 1586 1587
1540 1542 1545 1547 1550 1553 1556 1558 1560 1562 1564 1565 1565 1566 1568 1570 1570 1571 1572 1573 1575 1576 1575 1574 1573 1573 1574 1575 1574 1572 1573 1573 1572 1572 1569 1569 1570 1570 1573 1576 1579 1582 1584
1536 1538 1540 1543 1545 1547 1549 1552 1554 1556 1557 1559 1559 1559 1560 1562 1565 1565 1565 1566 1568 1568 1568 1567 1565 1565 1567 1568 1568 1569 1568 1569 1569 1569 1570 1567 1567 1567 1568 1572 1577 1579 1580
1533 1534 1536 1539 1541 1543 1546 1549 1552 1551 1549 1552 1552 1554 1554 1555 1557 1559 1559 1559 1559 1560 1561 1560 1559 1560 1559 1560 1561 1562 1563 1563 1564 1566 1567 1566 1564 1564 1565 1567 1571 1574 1579
1531 1532 1533 1534 1537 1540 1540 1544 1544 1552 1547 1543 1546 1547 1548 1547 1548 1553 1552 1552 1551 1551 1551 1553 1551 1550 1553 1553 1553 1553 1556 1557 1558 1559 1561 1564 1563 1562 1562 1565 1567 1570 1574
1533 1533 1534 1534 1535 1537 1538 1538 1540 1544 1541 1538 1540 1539 1538 1538 1536 1541 1544 1545 1544 1544 1543 1543 1543 1543 1543 1545 1546 1548 1549 1552 1553 1554 1553 1560 1562 1561 1562 1564 1565 1566 1568
1531 1533 1533 1533 1533 1534 1533 1534 1536 1533 1531 1533 1533 1532 1530 1529 1527 1530 1535 1537 1535 1536 1536 1535 1533 1534 1536 1536 1536 1538 1542 1546 1547 1549 1548 1555 1558 1558 1559 1560 1560 1563 1566
1530 1531 1531 1531 1531 1530 1530 1530 1528 1528 1528 1528 1527 1525 1524 1524 1524 1527 1527 1528 1528 1528 1528 1527 1526 1526 1525 1527 1529 1534 1538 1540 1541 1541 1548 1551 1553 1555 1556 1557 1558 1561 1564
1531 1531 1531 1530 1529 1528 1528 1526 1525 1525 1524 1524 1524 1523 1523 1522 1522 1521 1521 1521 1520 1520 1520 1519 1519 1521 1522 1524 1527 1528 1531 1534 1536 1539 1543 1548 1550 1551 1552 1554 1555 1559 1561
1533 1532 1531 1530 1528 1527 1526 1525 1524 1524 1522 1522 1521 1520 1519 1518 1518 1518 1517 1517 1516 1514 1515 1513 1515 1518 1518 1519 1522 1522 1524 1527 1531 1536 1542 1545 1547 1549 1551 1552 1554 1556 1559
1532 1531 1530 1529 1528 1527 1526 1524 1522 1521 1521 1520 1519 1519 1517 1515 1514 1513 1513 1513 1512 1510 1510 1510 1513 1515 1514 1515 1517 1518 1521 1524 1528 1534 1538 1542 1545 1547 1549 1551 1553 1556 1559
1531 1531 1530 1529 1528 1527 1526 1524 1522 1521 1520 1519 1519 1517 1513 1511 1510 1509 1508 1507 1507 1506 1506 1508 1509 1512 1513 1514 1515 1518 1521 1524 1526 1530 1535 1539 1542 1545 1548 1551 1553 1555 1557
1532 1531 1530 1529 1527 1525 1524 1523 1523 1522 1522 1522 1520 1517 1513 1511 1510 1508 1506 1506 1506 1505 1506 1508 1509 1513 1513 1514 1515 1517 1520 1522 1524 1528 1533 1537 1540 1543 1546 1549 1552 1553 1555
1531 1531 1530 1529 1528 1527 1525 1523 1522 1523 1523 1522 1520 1518 1516 1512 1510 1510 1509 1508 1507 1506 1508 1509 1511 1513 1514 1515 1517 1518 1519 1521 1524 1527 1532 1535 1538 1541 1544 1547 1549 1550 1552
1529 1529 1529 1528 1527 1527 1525 1524 1523 1522 1522 1522 1521 1519 1517 1514 1512 1511 1510 1511 1510 1509 1508 1510 1511 1512 1514 1515 1517 1516 1517 1520 1522 1526 1530 1532 1535 1538 1540 1543 1544 1549 1550
1526 1527 1527 1527 1527 1525 1524 1522 1521 1520 1519 1518 1518 1518 1517 1515 1514 1512 1511 1509 1509 1508 1507 1509 1510 1512 1513 1513 1514 1514 1514 1517 1519 1523 1526 1529 1532 1535 1538 1542 1545 1546 1548
1524 1525 1526 1525 1524 1523 1522 1520 1519 1518 1517 1517 1516 1517 1517 1517 1514 1512 1512 1510 1508 1506 1506 1507 1509 1510 1511 1511 1511 1511 1512 1514 1516 1519 1523 1526 1529 1532 1535 1538 1542 1544 1546
1522 1523 1524 1524 1523 1521 1519 1518 1517 1516 1515 1515 1515 1515 1515 1515 1513 1512 1511 1510 1509 1507 1506 1506 1507 1508 1509 1509 1509 1510 1511 1512 1514 1517 1520 1524 1527 1530 1534 1537 1540 1543 1545
1523 1523 1523 1522 1521 1520 1518 1516 1515 1515 1514 1514 1514 1514 1513 1513 1511 1512 1512 1510 1509 1507 1505 1505 1506 1507 1507 1508 1508 1508 1510 1511 1512 1515 1519 1522 1525 1529 1533 1537 1539 1540 1544
1522 1521 1521 1520 1519 1518 1517 1515 1513 1513 1513 1513 1513 1513 1512 1511 1511 1512 1511 1510 1509 1507 1505 1504 1505 1505 1505 1506 1506 1507 1508 1509 1512 1515 1518 1522 1526 1528 1532 1535 1537 1540 1543
1521 1520 1520 1519 1518 1517 1517 1516 1514 1513 1513 1512 1511 1511 1511 1511 1512 1512 1511 1510 1508 1506 1504 1503 1503 1503 1503 1504 1505 1506 1508 1510 1512 1514 1517 1521 1525 1528 1531 1535 1537 1540 1541
1519 1519 1518 1518 1517 1517 1516 1515 1514 1513 1512 1512 1511 1511 1511 1511 1511 1510 1509 1508 1507 1505 1504 1502 1501 1501 1502 1502 1503 1505 1507 1509 1512 1514 1518 1520 1525 1528 1531 1534 1536 1538 1541
1516 1516 1517 1517 1516 1516 1515 1515 1514 1513 1512 1512 1511 1510 1510 1509 1508 1508 1507 1507 1506 1505 1504 1502 1501 1500 1501 1502 1504 1505 1506 1509 1511 1514 1518 1522 1525 1528 1531 1534 1535 1538 1540
1514 1515 1516 1516 1515 1515 1514 1514 1513 1513 1512 1511 1510 1509 1508 1507 1506 1506 1506 1505 1505 1504 1503 1502 1502 1501 1502 1503 1503 1504 1506 1508 1511 1515 1519 1523 1526 1529 1531 1533 1535 1537 1538
Wind_Speed
22 18 18 17 16 19 17 15 15 15 15 14 14 14 15 14 13 15 12 12 11 10 11 11 11 12 13 12 16 14 13 10 6 6 7 6 5 9 10 14 17 15 12
28 25 22 21 20 18 20 18 16 18 18 17 17 18 19 18 17 16 16 14 15 15 14 15 15 15 16 16 17 12 14 13 8 7 9 8 7 8 10 12 14 14 12
24 26 26 26 27 24 21 18 18 17 17 19 20 21 22 21 21 22 21 21 20 19 20 20 19 19 20 19 19 20 14 14 9 10 9 9 9 10 13 15 15 13 11
22 24 23 24 25 27 24 20 18 17 17 18 18 19 21 21 22 22 25 24 24 24 25 26 25 24 23 22 25 23 18 17 12 12 10 9 10 12 15 15 15 12 10
18 20 20 20 19 23 25 25 22 19 17 13 15 18 17 19 23 23 23 26 26 28 28 30 30 28 25 26 29 27 20 20 16 13 11 11 12 14 18 17 12 10 12
9 11 14 16 16 16 16 16 17 19 18 14 12 14 17 17 19 19 20 25 28 30 33 32 31 33 28 26 27 27 22 21 18 14 13 12 14 15 18 17 14 13 10
6 8 10 9 10 13 13 14 21 19 18 19 19 22 26 22 21 27 23 24 28 29 28 29 31 33 29 28 24 25 22 23 21 13 15 15 16 16 18 17 16 13 10
6 3 5 7 9 11 16 20 21 18 19 20 17 22 24 32 42 36 25 25 30 33 34 31 33 35 30 28 26 26 21 20 25 20 15 16 14 15 15 13 13 14 11
2 3 6 11 14 15 16 13 13 14 17 17 18 19 23 25 34 42 40 32 32 32 34 33 32 34 33 32 31 24 25 24 24 21 17 15 16 15 15 15 17 15 9
3 1 1 2 5 6 10 15 16 15 14 16 16 18 18 21 21 21 28 34 28 29 25 23 21 21 23 21 24 19 22 23 21 19 17 16 17 16 15 14 13 13 10
3 3 4 5 5 6 7 9 10 12 13 15 16 16 16 16 16 16 17 22 25 24 21 17 13 9 10 16 22 20 21 19 22 20 18 18 16 14 13 13 13 11 10
5 6 7 7 7 8 10 12 13 14 16 18 19 19 19 20 21 19 18 16 18 21 17 16 14 17 18 17 17 14 13 17 20 19 20 19 17 13 13 12 12 13 13
8 7 7 6 6 8 12 14 15 14 14 14 16 18 18 20 21 20 18 19 16 13 17 19 18 16 8 7 9 10 15 18 18 20 20 18 16 14 13 14 16 15 12
5 6 7 8 9 11 14 12 10 12 13 10 11 16 16 14 12 13 15 14 13 12 10 12 10 9 7 7 10 14 16 17 17 19 19 17 17 14 16 15 14 13 11
3 5 8 9 14 13 12 12 13 11 7 6 10 13 9 9 8 5 2 2 2 1 4 6 7 8 7 5 8 12 15 17 17 16 16 17 17 16 16 15 14 11 7
4 5 6 10 9 10 13 11 7 5 4 6 9 12 11 8 6 5 2 2 3 5 5 6 8 7 3 2 4 9 14 15 15 16 18 17 16 17 19 16 12 12 11
6 6 6 7 8 13 8 7 5 5 4 6 5 9 11 8 6 3 2 1 4 4 4 3 6 8 7 6 10 11 14 17 16 17 20 19 18 21 20 19 18 16 13
9 8 7 8 10 14 13 8 7 9 6 3 7 6 5 10 3 4 3 5 5 3 7 8 9 11 13 12 13 11 13 19 20 20 20 21 22 20 18 17 15 12 10
10 8 7 10 11 14 12 11 8 10 9 7 8 4 3 5 8 6 7 8 8 6 6 9 11 11 10 9 8 8 9 10 15 19 20 22 23 21 19 13 11 12 9
1 4 7 9 11 13 12 11 11 7 3 4 1 3 5 3 8 4 5 6 7 4 4 7 10 9 8 6 6 5 7 9 16 18 19 19 20 19 17 16 12 12 7
3 4 6 9 10 11 12 12 10 7 3 4 2 0 4 5 4 1 3 5 7 5 2 1 6 8 7 9 8 8 9 9 12 17 16 14 14 17 17 15 12 11 9
4 6 7 8 10 10 8 10 6 2 1 2 7 6 4 2 5 1 1 3 5 6 4 1 4 6 6 5 5 5 6 10 12 15 15 14 16 18 18 12 8 9 10
4 6 7 8 10 4 4 7 7 4 4 4 0 3 3 6 5 3 2 4 6 6 6 4 3 4 4 6 9 8 8 9 11 12 13 16 18 19 16 9 13 9 8
7 6 6 7 2 4 4 5 6 7 6 3 2 1 3 5 7 6 5 6 8 8 9 8 6 5 6 6 8 10 12 13 13 11 11 17 20 13 12 11 12 9 8
5 3 3 4 4 5 5 6 3 4 4 5 5 3 4 6 6 7 6 6 7 8 7 6 6 5 8 8 9 9 11 12 11 13 17 15 14 14 11 11 11 10 8
1 4 3 2 4 5 5 5 4 4 5 5 5 5 6 6 6 8 8 7 6 6 6 4 2 5 8 8 7 8 12 16 17 18 15 15 16 14 13 10 11 8 6
Wind_Direction
242 242 251 261 252 243 244 246 251 255 254 258 265 265 270 276 289 265 260 259 261 256 256 264 270 273 277 272 300 279 269 276 262 279 281 281 260 222 218 217 211 213 219
250 248 250 248 256 254 249 250 253 257 260 261 264 267 268 272 271 272 262 260 260 263 265 265 266 274 274 268 295 282 272 265 266 273 281 274 252 224 200 196 200 200 217
259 255 252 250 248 253 254 254 257 259 263 265 266 267 267 268 272 270 263 259 263 267 269 267 266 267 268 266 277 302 292 253 258 255 258 256 231 210 201 196 194 205 215
262 262 258 255 251 251 257 260 259 261 263 264 265 268 271 271 268 271 269 265 261 266 270 270 269 268 271 270 271 277 287 251 262 258 241 237 217 205 196 196 197 210 208
272 264 257 255 251 243 248 255 259 259 261 269 275 268 269 277 278 274 272 273 270 266 264 263 265 265 268 267 267 278 276 254 258 255 244 228 214 204 194 191 191 202 210
255 268 269 262 257 259 254 253 260 254 248 259 275 286 271 274 281 273 274 278 277 272 267 264 265 267 263 260 267 272 254 249 251 255 243 227 220 202 195 193 195 193 200
244 243 255 257 256 246 233 242 276 266 258 255 284 299 285 266 281 277 268 272 271 270 270 270 266 263 265 255 260 267 249 239 238 234 245 246 231 212 199 200 200 196 192
285 261 266 266 243 252 266 269 265 264 274 278 287 293 289 268 263 259 273 284 274 271 267 266 265 267 262 254 259 248 252 251 241 231 222 242 227 209 203 210 212 207 207
351 286 265 256 265 269 269 274 275 289 297 288 286 279 282 275 274 269 251 277 275 274 269 265 264 267 263 253 249 234 245 252 242 226 213 224 215 212 211 211 211 201 193
1 348 276 273 258 260 262 266 273 277 270 274 284 288 283 282 285 274 256 270 275 275 269 270 275 277 270 243 220 235 248 254 245 229 216 217 216 219 217 217 220 196 192
41 12 343 337 324 304 292 289 285 284 277 277 277 280 282 282 278 270 258 262 270 269 265 263 262 251 271 255 242 254 273 252 241 206 210 218 218 211 209 200 195 192 193
10 349 331 315 313 317 315 311 309 307 304 298 293 291 289 283 278 273 268 277 271 260 250 248 258 270 274 266 258 247 231 231 205 196 207 213 214 209 203 197 191 176 173
334 341 346 346 336 329 321 311 311 316 311 299 292 293 290 281 275 272 261 264 277 280 253 247 261 269 236 203 205 203 206 200 192 200 212 217 211 204 198 182 172 171 177
6 4 347 340 338 333 333 331 319 317 310 301 312 309 310 306 297 282 276 275 271 270 244 235 237 217 205 202 197 200 197 199 199 208 214 210 200 197 191 183 180 182 194
352 350 347 340 345 348 350 334 314 317 316 339 349 357 353 351 340 348 337 276 309 120 173 187 185 180 177 181 198 196 205 203 207 210 208 203 198 199 192 193 191 194 206
301 314 337 357 14 10 356 357 15 6 12 16 349 343 354 15 10 10 22 99 99 103 135 163 174 178 158 242 245 223 213 210 210 202 202 200 202 203 193 203 207 217 219
279 280 310 346 344 333 350 346 338 338 345 347 350 335 327 5 36 33 346 223 138 143 145 211 211 219 226 261 292 270 231 223 217 206 207 208 200 196 198 203 218 240 207
275 270 287 300 327 336 338 320 311 300 298 255 286 303 292 307 349 28 30 28 350 279 229 243 248 255 270 276 273 262 244 235 226 210 211 209 210 208 208 213 231 207 191
274 265 284 306 312 324 328 327 322 319 268 281 287 235 290 304 305 353 3 352 333 311 256 246 247 248 259 264 259 246 235 232 225 216 212 209 207 203 213 212 205 193 191
276 268 292 307 316 327 331 326 327 328 257 224 4 250 248 275 283 289 357 357 349 325 288 237 232 236 249 253 247 234 224 217 214 209 209 214 215 218 217 196 189 183 216
290 295 301 312 323 331 328 323 319 316 298 226 224 0 293 282 233 158 343 356 4 6 345 216 201 234 240 242 245 234 236 225 219 213 206 194 199 188 176 181 198 208 204
285 294 301 311 321 336 345 357 350 288 29 252 258 265 286 227 156 166 318 341 358 14 13 308 231 221 232 220 199 197 199 195 195 191 191 195 184 178 189 196 210 191 191
287 300 305 311 320 331 7 20 18 359 332 336 240 175 187 174 184 226 296 336 344 350 356 336 275 223 208 219 207 203 205 199 182 175 186 185 180 176 181 219 187 180 187
289 293 297 323 31 20 14 6 21 29 32 29 41 117 194 207 225 247 281 317 337 335 335 332 313 243 208 184 166 173 177 177 178 176 190 182 183 192 181 188 187 189 185
285 243 274 305 310 341 356 15 13 13 17 28 28 329 286 278 258 253 262 287 311 312 312 317 305 229 190 177 179 190 196 199 193 171 168 179 188 179 179 179 186 182 194
260 225 256 295 337 360 18 15 350 335 340 343 326 310 308 296 261 253 256 267 279 302 303 283 280 204 196 197 186 188 169 159 160 156 164 165 165 168 170 175 184 186 199